Weather History for Kirksville, MO

Change the Weather History Date:

Saturday, September 3, 2011

  Actual Average Record
Temperature  
Mean Temperature 79 °F 69 °F  
Max Temperature 94 °F 81 °F 100 °F (1939)
Min Temperature 63 °F 58 °F 39 °F (1952)
Degree Days  
Heating Degree Days 0 1  
Month to date heating degree days 0 3  
Since 1 July heating degree days 0 10  
Cooling Degree Days 14 5  
Month to date cooling degree days 54 17  
Year to date cooling degree days 1159 861  
Growing Degree Days 30 (Base 50)    
Moisture  
Dew Point 68 °F    
Average Humidity 72    
Maximum Humidity 97    
Minimum Humidity 47    
Precipitation  
Precipitation 0.24 in 0.14 in 1.53 in (1926)
Month to date precipitation 0.24 0.45  
Year to date precipitation 27.73 27.86  
Sea Level Pressure  
Sea Level Pressure 29.91 in    
Wind  
Wind Speed 7 mph (NW)    
Max Wind Speed 21 mph    
Max Gust Speed 28 mph    
Visibility 7 miles    
Events Rain , Thunderstorm    
T = Trace of Precipitation, MM = Missing Value Source: NWS Daily Summary

Daily Weather History Graph

Daily Weather History Graph

Search for Another Location

Airport:

Trip Planner

Search our weather history database for the weather conditions in past years. The results will help you decide how hot, cold, wet, or windy it might be!

Date:

Astronomy

Sep. 03, 2011 Rise Set
Actual Time 6:39 AM CDT 7:38 PM CDT
Civil Twilight 6:11 AM CDT 8:06 PM CDT
Nautical Twilight 5:38 AM CDT 8:39 PM CDT
Astronomical Twilight 5:04 AM CDT 9:13 PM CDT
Moon 1:21 PM CDT (9/3) 11:03 PM CDT (9/3)
Length of Visible Light 13h 54m
Length of Day
12h 59m
Waxing Crescent, 39% of the Moon is Illuminated
Sep 3
Waxing Crescent
Sep 4
First Quarter
Sep 12
Full
Sep 20
Last Quarter
Sep 27
New

Hourly Weather History & Observations

Time (CDT) Temp. Heat Index Dew Point Humidity Pressure Visibility Wind Dir Wind Speed Gust Speed Precip Events Conditions
12:55 AM 73.9 °F - 66.9 °F 79% 29.90 in 7.0 mi SSW 5.8 mph - N/A   Clear
1:55 AM 73.9 °F - 66.9 °F 79% 29.89 in 6.0 mi SSW 6.9 mph - N/A   Haze
2:55 AM 73.0 °F - 66.9 °F 81% 29.88 in 7.0 mi SSW 4.6 mph - N/A   Clear
3:55 AM 73.0 °F - 66.9 °F 81% 29.88 in 7.0 mi SSW 5.8 mph - N/A   Clear
4:55 AM 73.4 °F - 66.2 °F 78% 29.90 in 8.0 mi SSW 6.9 mph - N/A   Clear
5:55 AM 73.4 °F - 66.2 °F 78% 29.91 in 7.0 mi WNW 5.8 mph - N/A   Partly Cloudy
6:55 AM 70.0 °F - 66.9 °F 90% 29.90 in 5.0 mi Calm Calm - N/A   Clear
7:55 AM 71.6 °F - 68.0 °F 88% 29.92 in 5.0 mi SSE 5.8 mph - N/A   Clear
8:55 AM 78.1 °F - 70.0 °F 76% 29.90 in 8.0 mi SW 3.5 mph - N/A   Clear
9:55 AM 81.0 °F 84.4 °F 70.0 °F 69% 29.90 in 10.0 mi SSW 8.1 mph - N/A   Clear
10:55 AM 84.0 °F 88.4 °F 70.0 °F 63% 29.89 in 10.0 mi SW 5.8 mph - N/A   Clear
11:55 AM 88.0 °F 92.1 °F 69.1 °F 53% 29.88 in 10.0 mi WSW 8.1 mph - N/A   Partly Cloudy
12:55 PM 91.0 °F 95.6 °F 69.1 °F 48% 29.87 in 10.0 mi SW 8.1 mph - N/A   Clear
1:55 PM 91.9 °F 95.9 °F 68.0 °F 45% 29.84 in 10.0 mi SW 8.1 mph 17.3 mph N/A   Partly Cloudy
2:52 PM 80.6 °F 83.9 °F 69.8 °F 70% 29.88 in 8.0 mi NNW 12.7 mph 23.0 mph N/A Thunderstorm Thunderstorm
2:55 PM 81.0 °F 84.4 °F 70.0 °F 69% 29.86 in 7.0 mi NNW 11.5 mph 23.0 mph N/A Thunderstorm Thunderstorm
3:09 PM 73.4 °F - 66.2 °F 78% 29.90 in 1.5 mi NW 16.1 mph 24.2 mph 0.08 in Rain , Thunderstorm Heavy Thunderstorms and Rain
3:20 PM 71.6 °F - 66.2 °F 83% 29.91 in 3.0 mi North 4.6 mph 17.3 mph 0.23 in Rain , Thunderstorm Light Thunderstorms and Rain
3:44 PM 73.4 °F - 66.2 °F 78% 29.91 in 2.0 mi North 8.1 mph - 0.23 in Rain , Thunderstorm Light Thunderstorms and Rain
3:53 PM 73.4 °F - 68.0 °F 83% 29.91 in 8.0 mi North 6.9 mph - 0.23 in Rain , Thunderstorm Light Thunderstorms and Rain
3:55 PM 73.0 °F - 69.1 °F 87% 29.90 in 9.0 mi North 8.1 mph - 0.23 in Rain , Thunderstorm Light Thunderstorms and Rain
4:15 PM 73.4 °F - 69.8 °F 88% 29.89 in 7.0 mi North 10.4 mph - 0.01 in   Mostly Cloudy
4:55 PM 75.0 °F - 71.1 °F 87% 29.90 in 7.0 mi North 9.2 mph - 0.01 in   Scattered Clouds
5:35 PM 75.2 °F - 71.6 °F 89% 29.91 in 6.0 mi NNE 9.2 mph - 0.00 in Thunderstorm Scattered Clouds
5:55 PM 75.2 °F - 71.6 °F 89% 29.92 in 5.0 mi NNE 10.4 mph - N/A Thunderstorm Mostly Cloudy
6:04 PM 73.4 °F - 69.8 °F 88% 29.94 in 6.0 mi North 5.8 mph - N/A   Mostly Cloudy
6:55 PM 71.6 °F - 69.8 °F 94% 29.91 in 9.0 mi NE 6.9 mph - N/A   Mostly Cloudy
7:55 PM 70.0 °F - 68.0 °F 93% 29.91 in 10.0 mi East 4.6 mph - N/A   Partly Cloudy
8:55 PM 70.0 °F - 66.9 °F 90% 29.96 in 10.0 mi NNE 3.5 mph - N/A   Overcast
9:55 PM 68.0 °F - 66.2 °F 94% 29.98 in 9.0 mi North 3.5 mph - N/A   Clear
10:55 PM 68.0 °F - 66.9 °F 96% 29.96 in 7.0 mi Calm Calm - N/A   Scattered Clouds
11:55 PM 68.0 °F - 66.9 °F 96% 29.96 in 6.0 mi WNW 3.5 mph - N/A   Mostly Cloudy